TimeAKDT,TemperatureF,Dew PointF,Humidity,Sea Level PressureIn,VisibilityMPH,Wind Direction,Wind SpeedMPH,Gust SpeedMPH,PrecipitationIn,Events,Conditions,WindDirDegrees,DateUTC
12:53 AM,43.0,43.0,100,30.16,0.8,South,9.2,-,N/A,,Mist,180,2013-07-16 08:53:00
1:33 AM,42.8,42.8,100,30.15,0.5,South,6.9,-,N/A,Fog,Fog,170,2013-07-16 09:33:00
1:53 AM,42.1,42.1,100,30.15,0.5,South,9.2,-,N/A,Fog,Fog,180,2013-07-16 09:53:00
2:53 AM,43.0,43.0,100,30.17,0.5,SSW,6.9,-,N/A,Fog,Fog,200,2013-07-16 10:53:00
3:53 AM,42.1,42.1,100,30.14,0.5,SSW,5.8,-,N/A,Fog,Fog,200,2013-07-16 11:53:00
4:39 AM,42.8,42.8,100,30.15,0.8,SSW,5.8,-,N/A,,Mist,210,2013-07-16 12:39:00
4:53 AM,42.1,42.1,100,30.16,0.8,SW,6.9,-,N/A,,Mist,220,2013-07-16 12:53:00
5:53 AM,44.1,44.1,100,30.14,0.5,WSW,5.8,-,N/A,Fog,Fog,240,2013-07-16 13:53:00
6:53 AM,44.1,44.1,100,30.14,0.5,Calm,Calm,-,N/A,Fog,Fog,0,2013-07-16 14:53:00
7:53 AM,43.0,43.0,100,30.14,0.2,Calm,Calm,-,N/A,Fog,Fog,0,2013-07-16 15:53:00
8:53 AM,43.0,43.0,100,30.14,0.2,SSE,5.8,-,N/A,Fog,Fog,150,2013-07-16 16:53:00
9:53 AM,43.0,43.0,100,30.14,0.2,South,4.6,-,N/A,Fog,Fog,170,2013-07-16 17:53:00
10:53 AM,44.1,44.1,100,30.15,0.5,South,4.6,-,N/A,Fog,Fog,190,2013-07-16 18:53:00
10:57 AM,44.6,44.6,100,30.15,1.0,South,4.6,-,N/A,,Mist,190,2013-07-16 18:57:00
11:10 AM,44.6,44.6,100,30.15,0.5,South,5.8,-,N/A,Fog,Fog,190,2013-07-16 19:10:00
11:25 AM,44.6,44.6,100,30.13,1.0,South,4.6,-,N/A,,Overcast,170,2013-07-16 19:25:00
11:32 AM,44.6,44.6,100,30.13,3.0,South,5.8,-,N/A,,Overcast,170,2013-07-16 19:32:00
11:48 AM,44.6,44.6,100,30.13,10.0,South,4.6,-,N/A,,Overcast,170,2013-07-16 19:48:00
11:53 AM,45.0,45.0,100,30.14,10.0,South,5.8,-,N/A,,Overcast,180,2013-07-16 19:53:00
12:53 PM,44.1,44.1,100,30.15,10.0,SSW,3.5,-,N/A,,Overcast,210,2013-07-16 20:53:00
1:02 PM,44.6,44.6,100,30.15,10.0,SSW,4.6,-,N/A,,Overcast,210,2013-07-16 21:02:00
1:38 PM,44.6,44.6,100,30.14,10.0,South,3.5,-,N/A,,Overcast,180,2013-07-16 21:38:00
1:53 PM,44.1,44.1,100,30.13,9.0,SSE,4.6,-,N/A,,Overcast,160,2013-07-16 21:53:00
2:26 PM,44.6,44.6,100,30.13,10.0,SE,5.8,-,N/A,,Overcast,140,2013-07-16 22:26:00
2:39 PM,44.6,44.6,100,30.12,10.0,SE,4.6,-,N/A,,Overcast,140,2013-07-16 22:39:00
2:49 PM,46.4,44.6,93,30.12,10.0,SSE,3.5,-,N/A,,Overcast,160,2013-07-16 22:49:00
2:53 PM,46.0,45.0,96,30.12,10.0,SE,3.5,-,N/A,,Overcast,130,2013-07-16 22:53:00
3:00 PM,46.4,44.6,93,30.12,10.0,SE,3.5,-,N/A,,Mostly Cloudy,130,2013-07-16 23:00:00
3:26 PM,46.4,44.6,93,30.12,10.0,SE,3.5,-,N/A,,Overcast,140,2013-07-16 23:26:00
3:53 PM,46.9,45.0,93,30.12,10.0,SE,3.5,-,N/A,,Overcast,130,2013-07-16 23:53:00
4:53 PM,46.9,45.0,93,30.12,10.0,SSE,3.5,-,N/A,,Overcast,150,2013-07-17 00:53:00
5:51 PM,46.4,44.6,93,30.12,9.0,SSE,3.5,-,N/A,,Overcast,150,2013-07-17 01:51:00
5:53 PM,46.0,45.0,96,30.12,10.0,SSE,3.5,-,N/A,,Overcast,150,2013-07-17 01:53:00
6:53 PM,46.0,45.0,96,30.11,10.0,SE,4.6,-,N/A,,Overcast,130,2013-07-17 02:53:00
7:33 PM,46.4,44.6,93,30.11,10.0,ESE,4.6,-,N/A,,Overcast,110,2013-07-17 03:33:00
7:53 PM,46.0,45.0,96,30.11,9.0,East,4.6,-,N/A,,Overcast,100,2013-07-17 03:53:00
8:00 PM,46.4,44.6,93,30.11,9.0,ESE,4.6,-,N/A,,Overcast,120,2013-07-17 04:00:00
8:53 PM,46.0,45.0,96,30.11,10.0,ESE,3.5,-,N/A,,Overcast,120,2013-07-17 04:53:00
9:53 PM,46.0,45.0,96,30.10,10.0,East,3.5,-,N/A,,Overcast,90,2013-07-17 05:53:00
10:48 PM,46.4,44.6,93,30.11,10.0,East,4.6,-,N/A,,Overcast,90,2013-07-17 06:48:00
10:53 PM,46.0,45.0,96,30.11,8.0,East,4.6,-,N/A,,Overcast,100,2013-07-17 06:53:00
11:06 PM,46.4,44.6,93,30.11,6.0,East,4.6,-,N/A,,Overcast,90,2013-07-17 07:06:00
11:15 PM,46.4,44.6,93,30.11,7.0,ENE,5.8,-,N/A,,Overcast,70,2013-07-17 07:15:00
11:41 PM,44.6,44.6,100,30.12,2.5,East,4.6,-,N/A,,Overcast,90,2013-07-17 07:41:00
11:53 PM,45.0,45.0,100,30.12,1.8,East,3.5,-,N/A,,Overcast,80,2013-07-17 07:53:00